Year,Month,Day,Hour,Minute,Value (Times are PST for temperature in C)
2008,07,17,00,00,10.70
2008,07,17,00,01,10.70
2008,07,17,00,02,10.70
2008,07,17,00,03,10.70
2008,07,17,00,04,10.60
2008,07,17,00,05,10.60
2008,07,17,00,06,10.60
2008,07,17,00,07,10.60
2008,07,17,00,08,10.60
2008,07,17,00,09,10.60
2008,07,17,00,10,10.60
2008,07,17,00,11,10.60
2008,07,17,00,12,10.60
2008,07,17,00,13,10.60
2008,07,17,00,14,10.60
2008,07,17,00,15,10.60
2008,07,17,00,16,10.60
2008,07,17,00,17,10.60
2008,07,17,00,18,10.60
2008,07,17,00,19,10.60
2008,07,17,00,20,10.60
2008,07,17,00,21,10.60
2008,07,17,00,22,10.60
2008,07,17,00,23,10.60
2008,07,17,00,24,10.60
2008,07,17,00,25,10.60
2008,07,17,00,26,10.60
2008,07,17,00,27,10.60
2008,07,17,00,28,10.60
2008,07,17,00,29,10.60
2008,07,17,00,30,10.60
2008,07,17,00,31,10.60
2008,07,17,00,32,10.60
2008,07,17,00,33,10.60
2008,07,17,00,34,10.60
2008,07,17,00,35,10.50
2008,07,17,00,36,10.40
2008,07,17,00,37,10.40
2008,07,17,00,38,10.40
2008,07,17,00,39,10.40
2008,07,17,00,40,10.40
2008,07,17,00,41,10.40
2008,07,17,00,42,10.40
2008,07,17,00,43,10.40
2008,07,17,00,44,10.40
2008,07,17,00,45,10.40
2008,07,17,00,46,10.40
2008,07,17,00,47,10.40
2008,07,17,00,48,10.40
2008,07,17,00,49,10.40
2008,07,17,00,50,10.40
2008,07,17,00,51,10.40
2008,07,17,00,52,10.40
2008,07,17,00,53,10.40
2008,07,17,00,54,10.40
2008,07,17,00,55,10.40
2008,07,17,00,56,10.40
2008,07,17,00,57,10.40
2008,07,17,00,58,10.40
2008,07,17,00,59,10.40
2008,07,17,01,00,10.40
2008,07,17,01,01,10.40
2008,07,17,01,02,10.40
2008,07,17,01,03,10.40
2008,07,17,01,04,10.40
2008,07,17,01,05,10.40
2008,07,17,01,06,10.40
2008,07,17,01,07,10.40
2008,07,17,01,08,10.40
2008,07,17,01,09,10.40
2008,07,17,01,10,10.40
2008,07,17,01,11,10.40
2008,07,17,01,12,10.40
2008,07,17,01,13,10.40
2008,07,17,01,14,10.40
2008,07,17,01,15,10.40
2008,07,17,01,16,10.40
2008,07,17,01,17,10.40
2008,07,17,01,18,10.40
2008,07,17,01,19,10.40
2008,07,17,01,20,10.30
2008,07,17,01,21,10.30
2008,07,17,01,22,10.30
2008,07,17,01,23,10.30
2008,07,17,01,24,10.30
2008,07,17,01,25,10.30
2008,07,17,01,26,10.30
2008,07,17,01,27,10.20
2008,07,17,01,28,10.20
2008,07,17,01,29,10.20
2008,07,17,01,30,10.20
2008,07,17,01,31,10.20
2008,07,17,01,32,10.20
2008,07,17,01,33,10.20
2008,07,17,01,34,10.20
2008,07,17,01,35,10.20
2008,07,17,01,36,10.20
2008,07,17,01,37,10.20
2008,07,17,01,38,10.20
2008,07,17,01,39,10.20
2008,07,17,01,40,10.20
2008,07,17,01,41,10.20
2008,07,17,01,42,10.20
2008,07,17,01,43,10.20
2008,07,17,01,44,10.20
2008,07,17,01,45,10.20
2008,07,17,01,46,10.20
2008,07,17,01,47,10.20
2008,07,17,01,48,10.20
2008,07,17,01,49,10.20
2008,07,17,01,50,10.20
2008,07,17,01,51,10.20
2008,07,17,01,52,10.20
2008,07,17,01,53,10.20
2008,07,17,01,54,10.30
2008,07,17,01,55,10.30
2008,07,17,01,56,10.30
2008,07,17,01,57,10.30
2008,07,17,01,58,10.30
2008,07,17,01,59,10.30
2008,07,17,02,00,10.30
2008,07,17,02,01,10.30
2008,07,17,02,02,10.20
2008,07,17,02,03,10.20
2008,07,17,02,04,10.20
2008,07,17,02,05,10.20
2008,07,17,02,06,10.20
2008,07,17,02,07,10.20
2008,07,17,02,08,10.20
2008,07,17,02,09,10.20
2008,07,17,02,10,10.10
2008,07,17,02,11,10.10
2008,07,17,02,12,10.10
2008,07,17,02,13,10.10
2008,07,17,02,14,10.10
2008,07,17,02,15,10.10
2008,07,17,02,16,10.10
2008,07,17,02,17,10.10
2008,07,17,02,18,10.10
2008,07,17,02,19,10.10
2008,07,17,02,20,10.10
2008,07,17,02,21,10.10
2008,07,17,02,22,10.10
2008,07,17,02,23,10.10
2008,07,17,02,24,10.10
2008,07,17,02,25,10.10
2008,07,17,02,26,10.10
2008,07,17,02,27,10.10
2008,07,17,02,28,10.10
2008,07,17,02,29,10.10
2008,07,17,02,30,10.10
2008,07,17,02,31,10.10
2008,07,17,02,32,10.10
2008,07,17,02,33,10.10
2008,07,17,02,34,10.10
2008,07,17,02,35,10.10
2008,07,17,02,36,10.10
2008,07,17,02,37,10.10
2008,07,17,02,38,10.10
2008,07,17,02,39,10.00
2008,07,17,02,40,9.90
2008,07,17,02,41,9.90
2008,07,17,02,42,9.90
2008,07,17,02,43,9.90
2008,07,17,02,44,9.90
2008,07,17,02,45,9.90
2008,07,17,02,46,9.90
2008,07,17,02,47,9.90
2008,07,17,02,48,9.90
2008,07,17,02,49,9.90
2008,07,17,02,50,9.90
2008,07,17,02,51,9.90
2008,07,17,02,52,9.90
2008,07,17,02,53,9.90
2008,07,17,02,54,9.90
2008,07,17,02,55,9.90
2008,07,17,02,56,9.90
2008,07,17,02,57,9.90
2008,07,17,02,58,9.90
2008,07,17,02,59,9.90
2008,07,17,03,00,9.90
2008,07,17,03,01,9.80
2008,07,17,03,02,9.80
2008,07,17,03,03,9.80
2008,07,17,03,04,9.80
2008,07,17,03,05,9.80
2008,07,17,03,06,9.80
2008,07,17,03,07,9.80
2008,07,17,03,08,9.80
2008,07,17,03,09,9.80
2008,07,17,03,10,9.80
2008,07,17,03,11,9.80
2008,07,17,03,12,9.80
2008,07,17,03,13,9.80
2008,07,17,03,14,9.70
2008,07,17,03,15,9.70
2008,07,17,03,16,9.70
2008,07,17,03,17,9.70
2008,07,17,03,18,9.70
2008,07,17,03,19,9.70
2008,07,17,03,20,9.70
2008,07,17,03,21,9.70
2008,07,17,03,22,9.70
2008,07,17,03,23,9.70
2008,07,17,03,24,9.70
2008,07,17,03,25,9.70
2008,07,17,03,26,9.70
2008,07,17,03,27,9.70
2008,07,17,03,28,9.70
2008,07,17,03,29,9.70
2008,07,17,03,30,9.70
2008,07,17,03,31,9.70
2008,07,17,03,32,9.70
2008,07,17,03,33,9.70
2008,07,17,03,34,9.70
2008,07,17,03,35,9.70
2008,07,17,03,36,9.70
2008,07,17,03,37,9.70
2008,07,17,03,38,9.80
2008,07,17,03,39,9.80
2008,07,17,03,40,9.80
2008,07,17,03,41,9.80
2008,07,17,03,42,9.80
2008,07,17,03,43,9.80
2008,07,17,03,44,9.80
2008,07,17,03,45,9.80
2008,07,17,03,46,9.80
2008,07,17,03,47,9.80
2008,07,17,03,48,9.70
2008,07,17,03,49,9.70
2008,07,17,03,50,9.70
2008,07,17,03,51,9.70
2008,07,17,03,52,9.70
2008,07,17,03,53,9.70
2008,07,17,03,54,9.70
2008,07,17,03,55,9.70
2008,07,17,03,56,9.70
2008,07,17,03,57,9.70
2008,07,17,03,58,9.70
2008,07,17,03,59,9.70
2008,07,17,04,00,9.70
2008,07,17,04,01,9.70
2008,07,17,04,02,9.70
2008,07,17,04,03,9.70
2008,07,17,04,04,9.70
2008,07,17,04,05,9.70
2008,07,17,04,06,9.70
2008,07,17,04,07,9.70
2008,07,17,04,08,9.70
2008,07,17,04,09,9.70
2008,07,17,04,10,9.70
2008,07,17,04,11,9.70
2008,07,17,04,12,9.70
2008,07,17,04,13,9.70
2008,07,17,04,14,9.60
2008,07,17,04,15,9.60
2008,07,17,04,16,9.60
2008,07,17,04,17,9.60
2008,07,17,04,18,9.60
2008,07,17,04,19,9.60
2008,07,17,04,20,9.60
2008,07,17,04,21,9.60
2008,07,17,04,22,9.60
2008,07,17,04,23,9.60
2008,07,17,04,24,9.60
2008,07,17,04,25,9.60
2008,07,17,04,26,9.60
2008,07,17,04,27,9.60
2008,07,17,04,28,9.60
2008,07,17,04,29,9.60
2008,07,17,04,30,9.60
2008,07,17,04,31,9.60
2008,07,17,04,32,9.60
2008,07,17,04,33,9.60
2008,07,17,04,34,9.60
2008,07,17,04,35,9.60
2008,07,17,04,36,9.60
2008,07,17,04,37,9.60
2008,07,17,04,38,9.60
2008,07,17,04,39,9.60
2008,07,17,04,40,9.60
2008,07,17,04,41,9.60
2008,07,17,04,42,9.60
2008,07,17,04,43,9.60
2008,07,17,04,44,9.60
2008,07,17,04,45,9.60
2008,07,17,04,46,9.60
2008,07,17,04,47,9.60
2008,07,17,04,48,9.60
2008,07,17,04,49,9.60
2008,07,17,04,50,9.60
2008,07,17,04,51,9.60
2008,07,17,04,52,9.60
2008,07,17,04,53,9.60
2008,07,17,04,54,9.60
2008,07,17,04,55,9.60
2008,07,17,04,56,9.60
2008,07,17,04,57,9.60
2008,07,17,04,58,9.60
2008,07,17,04,59,9.60
2008,07,17,05,00,9.60
2008,07,17,05,01,9.60
2008,07,17,05,02,9.60
2008,07,17,05,03,9.60
2008,07,17,05,04,9.60
2008,07,17,05,05,9.60
2008,07,17,05,06,9.60
2008,07,17,05,07,9.60
2008,07,17,05,08,9.50
2008,07,17,05,09,9.50
2008,07,17,05,10,9.50
2008,07,17,05,11,9.50
2008,07,17,05,12,9.50
2008,07,17,05,13,9.50
2008,07,17,05,14,9.50
2008,07,17,05,15,9.50
2008,07,17,05,16,9.50
2008,07,17,05,17,9.50
2008,07,17,05,18,9.50
2008,07,17,05,19,9.50
2008,07,17,05,20,9.50
2008,07,17,05,21,9.50
2008,07,17,05,22,9.50
2008,07,17,05,23,9.50
2008,07,17,05,24,9.40
2008,07,17,05,25,9.40
2008,07,17,05,26,9.40
2008,07,17,05,27,9.40
2008,07,17,05,28,9.40
2008,07,17,05,29,9.40
2008,07,17,05,30,9.40
2008,07,17,05,31,9.40
2008,07,17,05,32,9.40
2008,07,17,05,33,9.40
2008,07,17,05,34,9.40
2008,07,17,05,35,9.40
2008,07,17,05,36,9.40
2008,07,17,05,37,9.40
2008,07,17,05,38,9.40
2008,07,17,05,39,9.30
2008,07,17,05,40,9.30
2008,07,17,05,41,9.30
2008,07,17,05,42,9.30
2008,07,17,05,43,9.30
2008,07,17,05,44,9.30
2008,07,17,05,45,9.30
2008,07,17,05,46,9.30
2008,07,17,05,47,9.30
2008,07,17,05,48,9.40
2008,07,17,05,49,9.40
2008,07,17,05,50,9.40
2008,07,17,05,51,9.40
2008,07,17,05,52,9.40
2008,07,17,05,53,9.40
2008,07,17,05,54,9.40
2008,07,17,05,55,9.40
2008,07,17,05,56,9.40
2008,07,17,05,57,9.40
2008,07,17,05,58,9.40
2008,07,17,05,59,9.40
2008,07,17,06,00,9.40
2008,07,17,06,01,9.40
2008,07,17,06,02,9.40
2008,07,17,06,03,9.40
2008,07,17,06,04,9.40
2008,07,17,06,05,9.40
2008,07,17,06,06,9.40
2008,07,17,06,07,9.40
2008,07,17,06,08,9.40
2008,07,17,06,09,9.40
2008,07,17,06,10,9.40
2008,07,17,06,11,9.40
2008,07,17,06,12,9.40
2008,07,17,06,13,9.50
2008,07,17,06,14,9.50
2008,07,17,06,15,9.50
2008,07,17,06,16,9.50
2008,07,17,06,17,9.50
2008,07,17,06,18,9.50
2008,07,17,06,19,9.50
2008,07,17,06,20,9.60
2008,07,17,06,21,9.60
2008,07,17,06,22,9.60
2008,07,17,06,23,9.60
2008,07,17,06,24,9.70
2008,07,17,06,25,9.70
2008,07,17,06,26,9.70
2008,07,17,06,27,9.70
2008,07,17,06,28,9.70
2008,07,17,06,29,9.70
2008,07,17,06,30,9.70
2008,07,17,06,31,9.70
2008,07,17,06,32,9.70
2008,07,17,06,33,9.70
2008,07,17,06,34,9.80
2008,07,17,06,35,9.80
2008,07,17,06,36,9.80
2008,07,17,06,37,9.80
2008,07,17,06,38,9.90
2008,07,17,06,39,9.90
2008,07,17,06,40,9.90
2008,07,17,06,41,9.90
2008,07,17,06,42,9.90
2008,07,17,06,43,9.90
2008,07,17,06,44,9.90
2008,07,17,06,45,9.90
2008,07,17,06,46,9.90
2008,07,17,06,47,10.00
2008,07,17,06,48,10.10
2008,07,17,06,49,10.10
2008,07,17,06,50,10.10
2008,07,17,06,51,10.10
2008,07,17,06,52,10.10
2008,07,17,06,53,10.10
2008,07,17,06,54,10.10
2008,07,17,06,55,10.10
2008,07,17,06,56,10.10
2008,07,17,06,57,10.10
2008,07,17,06,58,10.20
2008,07,17,06,59,10.20
2008,07,17,07,00,10.20
2008,07,17,07,01,10.20
2008,07,17,07,02,10.30
2008,07,17,07,03,10.30
2008,07,17,07,04,10.30
2008,07,17,07,05,10.30
2008,07,17,07,06,10.30
2008,07,17,07,07,10.30
2008,07,17,07,08,10.30
2008,07,17,07,09,10.40
2008,07,17,07,10,10.40
2008,07,17,07,11,10.40
2008,07,17,07,12,10.40
2008,07,17,07,13,10.40
2008,07,17,07,14,10.40
2008,07,17,07,15,10.40
2008,07,17,07,16,10.50
2008,07,17,07,17,10.50
2008,07,17,07,18,10.40
2008,07,17,07,19,10.50
2008,07,17,07,20,10.60
2008,07,17,07,21,10.60
2008,07,17,07,22,10.60
2008,07,17,07,23,10.60
2008,07,17,07,24,10.60
2008,07,17,07,25,10.70
2008,07,17,07,26,10.70
2008,07,17,07,27,10.60
2008,07,17,07,28,10.70
2008,07,17,07,29,10.70
2008,07,17,07,30,10.70
2008,07,17,07,31,10.80
2008,07,17,07,32,10.80
2008,07,17,07,33,10.90
2008,07,17,07,34,10.90
2008,07,17,07,35,10.90
2008,07,17,07,36,10.90
2008,07,17,07,37,10.90
2008,07,17,07,38,10.90
2008,07,17,07,39,11.00
2008,07,17,07,40,11.10
2008,07,17,07,41,11.10
2008,07,17,07,42,11.10
2008,07,17,07,43,11.10
2008,07,17,07,44,11.10
2008,07,17,07,45,11.10
2008,07,17,07,46,11.10
2008,07,17,07,47,11.10
2008,07,17,07,48,11.20
2008,07,17,07,49,11.20
2008,07,17,07,50,11.20
2008,07,17,07,51,11.20
2008,07,17,07,52,11.20
2008,07,17,07,53,11.20
2008,07,17,07,54,11.20
2008,07,17,07,55,11.20
2008,07,17,07,56,11.20
2008,07,17,07,57,11.20
2008,07,17,07,58,11.20
2008,07,17,07,59,11.20
2008,07,17,08,00,11.20
2008,07,17,08,01,11.30
2008,07,17,08,02,11.30
2008,07,17,08,03,11.40
2008,07,17,08,04,11.40
2008,07,17,08,05,11.40
2008,07,17,08,06,11.40
2008,07,17,08,07,11.40
2008,07,17,08,08,11.50
2008,07,17,08,09,11.60
2008,07,17,08,10,11.60
2008,07,17,08,11,11.60
2008,07,17,08,12,11.60
2008,07,17,08,13,11.60
2008,07,17,08,14,11.60
2008,07,17,08,15,11.60
2008,07,17,08,16,11.60
2008,07,17,08,17,11.60
2008,07,17,08,18,11.70
2008,07,17,08,19,11.70
2008,07,17,08,20,11.80
2008,07,17,08,21,11.80
2008,07,17,08,22,11.80
2008,07,17,08,23,11.80
2008,07,17,08,24,11.80
2008,07,17,08,25,11.90
2008,07,17,08,26,11.90
2008,07,17,08,27,12.00
2008,07,17,08,28,12.00
2008,07,17,08,29,12.10
2008,07,17,08,30,12.20
2008,07,17,08,31,12.30
2008,07,17,08,32,12.30
2008,07,17,08,33,12.30
2008,07,17,08,34,12.40
2008,07,17,08,35,12.50
2008,07,17,08,36,12.50
2008,07,17,08,37,12.50
2008,07,17,08,38,12.60
2008,07,17,08,39,12.60
2008,07,17,08,40,12.70
2008,07,17,08,41,12.80
2008,07,17,08,42,12.80
2008,07,17,08,43,12.80
2008,07,17,08,44,12.90
2008,07,17,08,45,13.00
2008,07,17,08,46,13.00
2008,07,17,08,47,13.10
2008,07,17,08,48,13.20
2008,07,17,08,49,13.30
2008,07,17,08,50,13.30
2008,07,17,08,51,13.30
2008,07,17,08,52,13.30
2008,07,17,08,53,13.40
2008,07,17,08,54,13.40
2008,07,17,08,55,13.50
2008,07,17,08,56,13.60
2008,07,17,08,57,13.60
2008,07,17,08,58,13.60
2008,07,17,08,59,13.60
2008,07,17,09,00,13.70
2008,07,17,09,01,13.70
2008,07,17,09,02,13.70
2008,07,17,09,03,13.70
2008,07,17,09,04,13.70
2008,07,17,09,05,13.80
2008,07,17,09,06,13.80
2008,07,17,09,07,13.80
2008,07,17,09,08,13.90
2008,07,17,09,09,13.90
2008,07,17,09,10,14.00
2008,07,17,09,11,14.10
2008,07,17,09,12,14.20
2008,07,17,09,13,14.20
2008,07,17,09,14,14.30
2008,07,17,09,15,14.30
2008,07,17,09,16,14.40
2008,07,17,09,17,14.50
2008,07,17,09,18,14.50
2008,07,17,09,19,14.50
2008,07,17,09,20,14.50
2008,07,17,09,21,14.50
2008,07,17,09,22,14.60
2008,07,17,09,23,14.60
2008,07,17,09,24,14.60
2008,07,17,09,25,14.60
2008,07,17,09,26,14.60
2008,07,17,09,27,14.60
2008,07,17,09,28,14.70
2008,07,17,09,29,14.80
2008,07,17,09,30,14.80
2008,07,17,09,31,14.90
2008,07,17,09,32,15.00
2008,07,17,09,33,15.10
2008,07,17,09,34,15.10
2008,07,17,09,35,15.20
2008,07,17,09,36,15.30
2008,07,17,09,37,15.30
2008,07,17,09,38,15.30
2008,07,17,09,39,15.40
2008,07,17,09,40,15.40
2008,07,17,09,41,15.40
2008,07,17,09,42,15.50
2008,07,17,09,43,15.50
2008,07,17,09,44,15.50
2008,07,17,09,45,15.60
2008,07,17,09,46,15.60
2008,07,17,09,47,15.70
2008,07,17,09,48,15.70
2008,07,17,09,49,15.80
2008,07,17,09,50,15.80
2008,07,17,09,51,15.80
2008,07,17,09,52,15.80
2008,07,17,09,53,15.70
2008,07,17,09,54,15.70
2008,07,17,09,55,15.60
2008,07,17,09,56,15.60
2008,07,17,09,57,15.50
2008,07,17,09,58,15.50
2008,07,17,09,59,15.50
2008,07,17,10,00,15.50
2008,07,17,10,01,15.50
2008,07,17,10,02,15.50
2008,07,17,10,03,15.40
2008,07,17,10,04,15.40
2008,07,17,10,05,15.40
2008,07,17,10,06,15.40
2008,07,17,10,07,15.50
2008,07,17,10,08,15.50
2008,07,17,10,09,15.70
2008,07,17,10,10,15.80
2008,07,17,10,11,15.90
2008,07,17,10,12,16.10
2008,07,17,10,13,16.10
2008,07,17,10,14,16.30
2008,07,17,10,15,16.40
2008,07,17,10,16,16.50
2008,07,17,10,17,16.60
2008,07,17,10,18,16.70
2008,07,17,10,19,16.70
2008,07,17,10,20,16.70
2008,07,17,10,21,16.70
2008,07,17,10,22,16.70
2008,07,17,10,23,16.70
2008,07,17,10,24,16.70
2008,07,17,10,25,16.70
2008,07,17,10,26,16.70
2008,07,17,10,27,16.70
2008,07,17,10,28,16.70
2008,07,17,10,29,16.80
2008,07,17,10,30,16.90
2008,07,17,10,31,17.00
2008,07,17,10,32,17.00
2008,07,17,10,33,17.00
2008,07,17,10,34,17.10
2008,07,17,10,35,17.10
2008,07,17,10,36,17.20
2008,07,17,10,37,17.20
2008,07,17,10,38,17.30
2008,07,17,10,39,17.30
2008,07,17,10,40,17.40
2008,07,17,10,41,17.40
2008,07,17,10,42,17.40
2008,07,17,10,43,17.40
2008,07,17,10,44,17.50
2008,07,17,10,45,17.50
2008,07,17,10,46,17.60
2008,07,17,10,47,17.70
2008,07,17,10,48,17.70
2008,07,17,10,49,17.70
2008,07,17,10,50,17.70
2008,07,17,10,51,17.70
2008,07,17,10,52,17.70
2008,07,17,10,53,17.70
2008,07,17,10,54,17.80
2008,07,17,10,55,17.80
2008,07,17,10,56,17.80
2008,07,17,10,57,17.90
2008,07,17,10,58,17.90
2008,07,17,10,59,17.90
2008,07,17,11,00,18.10
2008,07,17,11,01,18.10
2008,07,17,11,02,18.10
2008,07,17,11,03,18.00
2008,07,17,11,04,17.90
2008,07,17,11,05,17.80
2008,07,17,11,06,17.80
2008,07,17,11,07,17.70
2008,07,17,11,08,17.60
2008,07,17,11,09,17.50
2008,07,17,11,10,17.50
2008,07,17,11,11,17.30
2008,07,17,11,12,17.30
2008,07,17,11,13,17.30
2008,07,17,11,14,17.30
2008,07,17,11,15,17.30
2008,07,17,11,16,17.30
2008,07,17,11,17,17.40
2008,07,17,11,18,17.40
2008,07,17,11,19,17.40
2008,07,17,11,20,17.50
2008,07,17,11,21,17.50
2008,07,17,11,22,17.60
2008,07,17,11,23,17.60
2008,07,17,11,24,17.70
2008,07,17,11,25,17.70
2008,07,17,11,26,17.80
2008,07,17,11,27,17.90
2008,07,17,11,28,17.90
2008,07,17,11,29,18.10
2008,07,17,11,30,18.00
2008,07,17,11,31,17.90
2008,07,17,11,32,17.90
2008,07,17,11,33,18.10
2008,07,17,11,34,18.10
2008,07,17,11,35,18.10
2008,07,17,11,36,18.20
2008,07,17,11,37,18.20
2008,07,17,11,38,18.30
2008,07,17,11,39,18.00
2008,07,17,11,40,17.90
2008,07,17,11,41,17.80
2008,07,17,11,42,17.80
2008,07,17,11,43,17.80
2008,07,17,11,44,17.70
2008,07,17,11,45,17.70
2008,07,17,11,46,17.60
2008,07,17,11,47,17.50
2008,07,17,11,48,17.60
2008,07,17,11,49,17.50
2008,07,17,11,50,17.50
2008,07,17,11,51,17.50
2008,07,17,11,52,17.50
2008,07,17,11,53,17.50
2008,07,17,11,54,17.50
2008,07,17,11,55,17.40
2008,07,17,11,56,17.20
2008,07,17,11,57,17.10
2008,07,17,11,58,17.00
2008,07,17,11,59,16.90
2008,07,17,12,00,16.80
2008,07,17,12,01,16.90
2008,07,17,12,02,17.00
2008,07,17,12,03,17.10
2008,07,17,12,04,17.30
2008,07,17,12,05,17.50
2008,07,17,12,06,17.60
2008,07,17,12,07,17.60
2008,07,17,12,08,17.70
2008,07,17,12,09,17.80
2008,07,17,12,10,17.80
2008,07,17,12,11,17.80
2008,07,17,12,12,17.80
2008,07,17,12,13,17.70
2008,07,17,12,14,17.70
2008,07,17,12,15,17.80
2008,07,17,12,16,17.80
2008,07,17,12,17,17.70
2008,07,17,12,18,17.60
2008,07,17,12,19,17.60
2008,07,17,12,20,17.60
2008,07,17,12,21,17.50
2008,07,17,12,22,17.50
2008,07,17,12,23,17.50
2008,07,17,12,24,17.50
2008,07,17,12,25,17.60
2008,07,17,12,26,17.60
2008,07,17,12,27,17.60
2008,07,17,12,28,17.50
2008,07,17,12,29,17.50
2008,07,17,12,30,17.50
2008,07,17,12,31,17.50
2008,07,17,12,32,17.50
2008,07,17,12,33,17.60
2008,07,17,12,34,17.70
2008,07,17,12,35,17.80
2008,07,17,12,36,17.80
2008,07,17,12,37,17.80
2008,07,17,12,38,17.80
2008,07,17,12,39,17.90
2008,07,17,12,40,18.00
2008,07,17,12,41,18.10
2008,07,17,12,42,18.30
2008,07,17,12,43,18.40
2008,07,17,12,44,18.40
2008,07,17,12,45,18.50
2008,07,17,12,46,18.60
2008,07,17,12,47,18.60
2008,07,17,12,48,18.60
2008,07,17,12,49,18.60
2008,07,17,12,50,18.60
2008,07,17,12,51,18.60
2008,07,17,12,52,18.60
2008,07,17,12,53,18.70
2008,07,17,12,54,18.70
2008,07,17,12,55,18.80
2008,07,17,12,56,18.90
2008,07,17,12,57,19.00
2008,07,17,12,58,19.10
2008,07,17,12,59,19.10
2008,07,17,13,00,19.20
2008,07,17,13,01,19.30
2008,07,17,13,02,19.40
2008,07,17,13,03,19.50
2008,07,17,13,04,19.50
2008,07,17,13,05,19.60
2008,07,17,13,06,19.60
2008,07,17,13,07,19.70
2008,07,17,13,08,19.70
2008,07,17,13,09,19.80
2008,07,17,13,10,19.80
2008,07,17,13,11,20.00
2008,07,17,13,12,20.10
2008,07,17,13,13,20.20
2008,07,17,13,14,20.20
2008,07,17,13,15,20.30
2008,07,17,13,16,20.30
2008,07,17,13,17,20.30
2008,07,17,13,18,20.30
2008,07,17,13,19,20.20
2008,07,17,13,20,20.10
2008,07,17,13,21,20.00
2008,07,17,13,22,19.90
2008,07,17,13,23,19.70
2008,07,17,13,24,19.40
2008,07,17,13,25,19.30
2008,07,17,13,26,19.00
2008,07,17,13,27,18.80
2008,07,17,13,28,18.80
2008,07,17,13,29,18.90
2008,07,17,13,30,18.90
2008,07,17,13,31,18.90
2008,07,17,13,32,19.00
2008,07,17,13,33,19.10
2008,07,17,13,34,19.10
2008,07,17,13,35,19.20
2008,07,17,13,36,19.30
2008,07,17,13,37,19.30
2008,07,17,13,38,19.40
2008,07,17,13,39,19.40
2008,07,17,13,40,19.40
2008,07,17,13,41,19.50
2008,07,17,13,42,19.50
2008,07,17,13,43,19.50
2008,07,17,13,44,19.60
2008,07,17,13,45,19.70
2008,07,17,13,46,19.60
2008,07,17,13,47,19.50
2008,07,17,13,48,19.50
2008,07,17,13,49,19.60
2008,07,17,13,50,19.70
2008,07,17,13,51,19.70
2008,07,17,13,52,19.70
2008,07,17,13,53,19.70
2008,07,17,13,54,19.70
2008,07,17,13,55,19.80
2008,07,17,13,56,19.80
2008,07,17,13,57,19.80
2008,07,17,13,58,19.80
2008,07,17,13,59,19.80
2008,07,17,14,00,19.80
2008,07,17,14,01,19.80
2008,07,17,14,02,19.80
2008,07,17,14,03,19.80
2008,07,17,14,04,19.80
2008,07,17,14,05,19.80
2008,07,17,14,06,19.90
2008,07,17,14,07,19.90
2008,07,17,14,08,19.90
2008,07,17,14,09,19.80
2008,07,17,14,10,19.70
2008,07,17,14,11,19.70
2008,07,17,14,12,19.70
2008,07,17,14,13,19.70
2008,07,17,14,14,19.70
2008,07,17,14,15,19.70
2008,07,17,14,16,19.70
2008,07,17,14,17,19.70
2008,07,17,14,18,19.60
2008,07,17,14,19,19.60
2008,07,17,14,20,19.60
2008,07,17,14,21,19.70
2008,07,17,14,22,19.80
2008,07,17,14,23,19.70
2008,07,17,14,24,19.70
2008,07,17,14,25,19.70
2008,07,17,14,26,19.70
2008,07,17,14,27,19.70
2008,07,17,14,28,19.70
2008,07,17,14,29,19.70
2008,07,17,14,30,19.70
2008,07,17,14,31,19.80
2008,07,17,14,32,19.90
2008,07,17,14,33,19.90
2008,07,17,14,34,19.90
2008,07,17,14,35,19.90
2008,07,17,14,36,20.00
2008,07,17,14,37,20.10
2008,07,17,14,38,20.20
2008,07,17,14,39,20.20
2008,07,17,14,40,20.20
2008,07,17,14,41,20.30
2008,07,17,14,42,20.30
2008,07,17,14,43,20.20
2008,07,17,14,44,20.20
2008,07,17,14,45,20.20
2008,07,17,14,46,20.20
2008,07,17,14,47,20.20
2008,07,17,14,48,20.20
2008,07,17,14,49,20.20
2008,07,17,14,50,20.10
2008,07,17,14,51,20.00
2008,07,17,14,52,19.90
2008,07,17,14,53,19.80
2008,07,17,14,54,19.70
2008,07,17,14,55,19.50
2008,07,17,14,56,19.40
2008,07,17,14,57,19.20
2008,07,17,14,58,19.10
2008,07,17,14,59,19.00
2008,07,17,15,00,18.90
2008,07,17,15,01,18.90
2008,07,17,15,02,18.90
2008,07,17,15,03,18.90
2008,07,17,15,04,18.90
2008,07,17,15,05,19.00
2008,07,17,15,06,19.10
2008,07,17,15,07,19.10
2008,07,17,15,08,19.10
2008,07,17,15,09,19.10
2008,07,17,15,10,19.10
2008,07,17,15,11,18.90
2008,07,17,15,12,18.90
2008,07,17,15,13,18.90
2008,07,17,15,14,18.90
2008,07,17,15,15,18.90
2008,07,17,15,16,18.90
2008,07,17,15,17,18.90
2008,07,17,15,18,19.00
2008,07,17,15,19,19.10
2008,07,17,15,20,19.00
2008,07,17,15,21,18.90
2008,07,17,15,22,18.90
2008,07,17,15,23,18.90
2008,07,17,15,24,19.00
2008,07,17,15,25,18.90
2008,07,17,15,26,19.00
2008,07,17,15,27,19.10
2008,07,17,15,28,19.10
2008,07,17,15,29,19.30
2008,07,17,15,30,19.30
2008,07,17,15,31,19.40
2008,07,17,15,32,19.50
2008,07,17,15,33,19.60
2008,07,17,15,34,19.60
2008,07,17,15,35,19.70
2008,07,17,15,36,19.70
2008,07,17,15,37,19.80
2008,07,17,15,38,19.90
2008,07,17,15,39,20.00
2008,07,17,15,40,20.10
2008,07,17,15,41,20.10
2008,07,17,15,42,20.10
2008,07,17,15,43,20.00
2008,07,17,15,44,19.90
2008,07,17,15,45,19.90
2008,07,17,15,46,19.90
2008,07,17,15,47,19.80
2008,07,17,15,48,19.80
2008,07,17,15,49,19.70
2008,07,17,15,50,19.70
2008,07,17,15,51,19.60
2008,07,17,15,52,19.50
2008,07,17,15,53,19.40
2008,07,17,15,54,19.50
2008,07,17,15,55,19.50
2008,07,17,15,56,19.50
2008,07,17,15,57,19.50
2008,07,17,15,58,19.50
2008,07,17,15,59,19.40
2008,07,17,16,00,19.40
2008,07,17,16,01,19.20
2008,07,17,16,02,19.10
2008,07,17,16,03,19.10
2008,07,17,16,04,19.10
2008,07,17,16,05,19.10
2008,07,17,16,06,19.10
2008,07,17,16,07,19.10
2008,07,17,16,08,19.10
2008,07,17,16,09,19.10
2008,07,17,16,10,19.10
2008,07,17,16,11,19.00
2008,07,17,16,12,19.00
2008,07,17,16,13,19.10
2008,07,17,16,14,19.10
2008,07,17,16,15,19.10
2008,07,17,16,16,19.10
2008,07,17,16,17,19.10
2008,07,17,16,18,19.10
2008,07,17,16,19,19.00
2008,07,17,16,20,18.90
2008,07,17,16,21,18.80
2008,07,17,16,22,18.80
2008,07,17,16,23,18.90
2008,07,17,16,24,18.90
2008,07,17,16,25,18.90
2008,07,17,16,26,18.90
2008,07,17,16,27,18.90
2008,07,17,16,28,18.90
2008,07,17,16,29,18.80
2008,07,17,16,30,18.80
2008,07,17,16,31,18.70
2008,07,17,16,32,18.70
2008,07,17,16,33,18.60
2008,07,17,16,34,18.50
2008,07,17,16,35,18.50
2008,07,17,16,36,18.60
2008,07,17,16,37,18.60
2008,07,17,16,38,18.70
2008,07,17,16,39,18.70
2008,07,17,16,40,18.70
2008,07,17,16,41,18.70
2008,07,17,16,42,18.70
2008,07,17,16,43,18.90
2008,07,17,16,44,19.00
2008,07,17,16,45,19.10
2008,07,17,16,46,19.10
2008,07,17,16,47,19.20
2008,07,17,16,48,19.20
2008,07,17,16,49,19.30
2008,07,17,16,50,19.30
2008,07,17,16,51,19.40
2008,07,17,16,52,19.40
2008,07,17,16,53,19.40
2008,07,17,16,54,19.40
2008,07,17,16,55,19.40
2008,07,17,16,56,19.40
2008,07,17,16,57,19.50
2008,07,17,16,58,19.40
2008,07,17,16,59,19.40
2008,07,17,17,00,19.40
2008,07,17,17,01,19.40
2008,07,17,17,02,19.50
2008,07,17,17,03,19.50
2008,07,17,17,04,19.50
2008,07,17,17,05,19.60
2008,07,17,17,06,19.70
2008,07,17,17,07,19.80
2008,07,17,17,08,19.90
2008,07,17,17,09,19.90
2008,07,17,17,10,19.90
2008,07,17,17,11,19.90
2008,07,17,17,12,19.90
2008,07,17,17,13,20.00
2008,07,17,17,14,20.10
2008,07,17,17,15,20.10
2008,07,17,17,16,19.90
2008,07,17,17,17,19.90
2008,07,17,17,18,19.90
2008,07,17,17,19,19.90
2008,07,17,17,20,20.00
2008,07,17,17,21,20.10
2008,07,17,17,22,20.20
2008,07,17,17,23,20.20
2008,07,17,17,24,20.20
2008,07,17,17,25,20.20
2008,07,17,17,26,20.20
2008,07,17,17,27,20.20
2008,07,17,17,28,20.20
2008,07,17,17,29,20.20
2008,07,17,17,30,20.20